Location: Bothwell
(42.3833°S, 147.0000°E)
Time: 22:29:19
(UTC+11:00)

CUTE-I - Pass Details

Date: 25 September 2022
Orbit: 810 x 823 km, 98.7° (Epoch: 30 November)

Event Time Altitude Azimuth Distance (km) Brightness Sun altitude
Rises 04:50:53 0° 38° (NE) 3,328 ? -12.9°
Reaches altitude 10° 04:53:21 10° 46° (NE) 2,405 ? -12.5°
Maximum altitude 04:58:13 38° 112° (ESE) 1,237 ? -11.6°
Drops below altitude 10° 05:03:10 10° 178° (S) 2,439 ? -10.7°
Sets 05:05:40 0° 186° (S) 3,380 ? -10.2°
